Wind_Speed
27 27 27 28 29 29 28 26 24 24 24 23 22 21 20 20 19 18 17 16 16 16 15 15 14 14 13 13 13 13 13 12 12 12 12 12 11 11 11 10 10 9 9 9 8 7 7 6 6
29 29 29 30 31 30 28 27 26 26 26 26 25 23 22 22 21 20 19 18 18 18 17 17 16 16 15 14 14 15 15 14 14 14 14 13 12 12 12 12 11 11 11 10 10 9 9 8 7
29 30 31 31 32 31 28 27 27 28 28 28 27 26 25 24 23 22 21 21 20 19 19 18 18 17 17 16 16 16 17 17 17 16 16 15 15 14 14 13 13 12 12 12 12 11 11 10 9
30 32 32 33 32 30 30 30 29 29 30 30 29 28 27 25 25 24 24 23 22 21 21 21 20 19 19 18 18 18 18 18 18 18 18 17 17 17 16 15 15 14 14 14 14 13 12 12 12
32 32 34 34 32 31 30 30 30 31 31 31 31 31 29 28 27 26 26 25 24 23 23 23 22 22 21 21 21 20 20 20 20 19 19 18 18 18 18 17 17 16 16 16 16 15 15 14 13
32 34 35 35 32 32 32 32 32 31 32 32 33 32 31 30 29 29 28 27 27 25 25 25 25 24 23 23 23 23 22 21 21 21 21 20 20 19 19 19 19 18 18 18 17 17 16 16 15
33 34 35 34 34 33 33 33 33 32 33 33 33 34 33 33 32 31 30 30 29 28 27 27 27 26 25 25 25 25 24 23 23 23 22 22 22 21 20 21 21 21 20 20 19 19 18 18 17
34 35 35 34 33 34 33 33 33 34 34 34 35 35 34 34 34 34 33 32 31 31 30 30 30 29 28 28 27 27 26 26 25 24 24 23 23 23 22 22 22 22 22 22 21 21 21 20 20
35 36 35 34 34 34 34 35 35 34 35 35 36 36 36 36 36 36 36 35 34 33 33 32 32 31 31 31 30 29 29 28 28 27 26 25 25 24 24 24 24 24 24 24 23 23 23 22 22
35 36 35 35 36 36 36 36 36 36 36 37 37 37 37 37 37 37 36 36 36 35 35 34 34 33 33 33 32 31 31 30 30 29 28 28 27 26 26 26 25 26 26 26 25 25 25 24 23
36 37 36 37 37 38 38 38 37 38 37 38 39 39 39 39 39 38 37 37 37 37 37 36 36 36 36 35 34 33 33 32 32 31 30 30 29 28 28 28 28 27 26 26 26 26 26 26 25
37 37 38 38 38 39 39 40 39 39 40 40 40 40 40 40 40 40 39 39 39 38 38 38 38 38 38 37 36 36 35 34 34 33 32 32 31 30 30 30 29 29 28 27 27 27 27 27 26
38 38 39 39 40 41 41 41 41 40 41 42 42 41 41 42 41 42 42 41 41 41 40 39 38 39 39 38 38 38 37 36 35 35 34 33 33 33 32 32 31 31 30 29 29 29 29 29 29
39 40 40 40 42 42 43 42 42 41 42 43 43 43 43 43 44 44 44 43 43 42 41 41 40 40 41 41 39 39 38 38 37 37 36 36 35 34 34 34 33 33 32 32 31 31 30 30 30
40 41 42 42 42 43 44 43 43 42 43 44 44 45 45 45 45 45 45 45 44 43 43 42 42 41 41 41 41 40 40 39 39 38 37 37 37 36 35 35 35 34 34 33 33 33 32 32 32
39 41 42 42 43 43 44 44 43 43 44 44 45 45 45 45 46 46 46 46 45 45 45 44 44 43 43 43 42 42 42 41 40 40 39 39 38 38 37 36 36 36 36 36 35 34 34 34 33
39 41 40 41 42 43 44 44 42 43 44 44 44 45 45 45 46 46 46 46 46 46 46 46 46 46 46 46 45 44 44 43 42 41 40 40 40 40 38 37 37 38 38 38 37 36 35 35 35
38 39 39 39 40 41 42 42 41 43 44 44 44 44 45 45 46 46 46 46 46 45 46 46 46 46 47 47 46 46 46 45 44 43 42 41 40 41 41 40 39 38 39 39 39 38 37 36 36
36 36 37 38 39 40 41 41 41 42 43 43 44 44 45 44 45 46 46 46 45 45 44 44 45 45 46 46 46 46 46 45 44 44 44 43 42 42 41 40 40 39 40 40 40 39 38 38 36
32 34 35 37 38 39 40 40 40 42 42 43 44 44 44 44 44 45 46 46 45 45 44 44 44 45 44 44 45 45 46 45 45 45 45 44 44 43 43 41 40 40 41 41 41 40 40 39 38
30 31 32 34 35 37 39 38 38 40 41 41 42 42 43 43 44 45 46 46 46 45 45 45 45 45 45 45 45 45 46 46 46 45 45 45 45 44 45 43 42 41 41 42 42 40 40 39 39
29 30 31 32 33 34 34 36 34 36 37 38 39 41 42 42 43 44 45 46 46 45 45 45 44 45 46 46 45 45 45 45 44 45 45 45 45 45 45 44 43 43 43 42 42 41 41 40 40
29 29 30 31 32 33 33 35 33 33 34 35 37 39 41 42 42 43 43 45 45 45 45 45 45 45 46 46 46 46 45 45 45 45 45 45 45 46 45 45 44 44 44 43 43 42 42 41 41
28 28 29 30 31 32 31 33 32 31 31 33 36 38 39 41 41 42 42 43 43 43 43 44 45 45 46 46 46 45 45 45 45 45 45 45 44 45 45 45 45 45 45 45 45 45 44 44 43
26 26 27 28 29 30 30 31 31 30 30 32 34 36 37 39 40 41 41 42 42 42 42 43 44 45 45 45 45 45 45 45 45 45 45 44 44 44 44 45 45 45 45 45 46 46 45 45 44
24 25 25 27 28 29 29 30 29 29 30 30 32 34 35 37 38 40 41 42 41 41 41 43 43 44 44 44 44 44 44 45 44 44 43 43 42 42 43 44 44 44 44 45 46 46 46 45 45
23 23 24 26 28 28 28 29 28 28 29 29 31 31 32 33 34 36 39 40 41 40 40 40 42 42 42 43 43 42 42 42 42 42 42 42 42 42 43 43 44 44 43 43 45 46 45 45 45
22 22 23 24 26 27 27 27 26 26 27 28 29 29 29 29 31 33 36 39 40 40 41 41 40 41 41 42 42 42 42 42 42 42 41 42 42 42 42 42 43 43 43 43 44 45 44 44 43
21 22 23 24 25 26 27 26 25 25 25 26 26 26 26 27 28 30 33 36 37 38 40 40 39 41 41 41 42 41 41 41 42 42 42 42 41 41 41 42 42 42 42 43 43 43 42 42 43
21 22 22 24 25 26 27 26 24 24 24 24 24 23 24 25 27 29 31 33 34 36 38 40 39 40 41 41 42 41 41 42 42 42 42 42 41 40 39 40 40 40 41 41 42 42 42 43 44
Wind_Direction
247 246 245 244 244 245 245 245 245 246 247 248 248 248 248 247 246 248 249 248 246 245 244 244 244 244 244 245 246 243 241 239 237 238 238 239 240 240 240 240 239 237 234 232 228 227 230 231 235
248 246 245 244 245 246 247 247 246 246 247 247 247 247 247 247 248 248 249 249 247 246 245 244 244 244 245 246 246 245 243 243 242 242 242 243 242 243 243 241 241 239 238 236 235 233 234 236 239
248 247 246 245 246 247 249 248 247 246 247 247 247 247 247 248 248 248 248 248 247 247 247 245 244 245 245 245 245 245 245 245 245 245 245 245 245 245 244 244 244 243 241 239 238 238 238 239 243
249 248 246 246 247 247 249 248 246 246 247 247 247 248 247 248 248 247 247 247 246 246 248 249 248 249 247 247 247 247 246 248 248 249 249 248 247 247 245 245 246 246 244 241 242 242 242 243 246
250 249 246 246 249 249 247 248 247 247 247 248 248 249 248 247 247 247 247 247 247 247 248 250 250 251 251 249 249 249 249 249 250 250 250 250 249 250 248 246 247 247 246 244 244 244 246 247 249
251 250 249 248 248 249 248 248 249 248 248 248 249 249 248 248 247 247 247 247 248 247 249 250 252 251 251 251 250 249 249 250 250 250 250 251 251 251 250 248 248 248 247 245 246 246 246 248 251
252 251 251 250 250 250 250 250 250 250 249 249 250 249 248 248 249 249 248 249 249 250 250 250 251 250 250 250 249 250 249 250 251 252 252 252 252 251 250 249 248 247 246 246 246 247 248 249 252
253 252 251 251 251 251 250 251 251 251 251 250 250 250 249 249 249 249 249 250 250 250 250 251 252 251 250 249 249 249 249 250 251 252 252 253 253 253 252 251 249 247 246 247 249 248 250 251 253
253 253 253 253 253 252 250 251 251 251 251 251 251 251 250 249 249 249 249 249 249 250 250 250 252 252 250 250 250 250 250 251 251 251 251 253 254 254 253 251 250 250 248 248 251 251 252 253 255
253 253 254 254 253 253 251 252 252 251 251 251 251 251 251 250 249 249 249 250 249 249 250 250 251 251 250 249 249 250 250 250 250 251 252 253 254 254 253 250 251 251 251 251 251 253 254 255 257
254 254 254 254 254 253 252 252 252 252 251 252 252 251 251 251 250 250 250 249 248 249 249 250 251 251 250 249 248 249 250 250 249 250 251 252 253 253 252 251 251 252 253 253 252 254 255 256 258
255 254 255 256 255 254 254 253 253 253 252 253 253 253 252 252 252 251 250 250 249 249 250 250 251 251 250 249 248 249 250 249 249 250 251 252 253 253 253 252 251 251 252 254 255 255 255 256 258
257 256 257 257 257 256 255 255 254 253 253 253 253 253 252 252 252 252 250 249 248 248 249 250 251 250 250 249 249 249 249 249 249 250 251 252 253 253 253 253 252 251 253 254 255 256 256 256 257
260 258 257 257 257 257 257 257 256 255 254 254 253 253 253 253 254 253 250 249 249 248 249 249 249 249 249 249 249 250 250 249 249 249 251 252 252 253 253 251 251 252 253 254 255 256 258 258 258
261 259 256 257 258 259 259 257 257 256 255 254 254 253 253 254 254 253 251 249 249 248 248 248 247 247 247 247 248 249 250 250 249 250 251 252 252 252 253 252 252 253 253 254 255 256 258 259 258
263 260 259 258 259 259 260 259 258 258 256 255 254 253 253 254 254 252 250 249 248 248 247 247 247 248 248 248 247 248 249 249 250 250 251 252 252 252 252 253 253 253 253 254 254 255 257 258 258
264 261 259 260 260 260 260 260 259 258 257 256 254 253 252 253 253 251 249 248 247 247 247 247 247 249 249 248 248 248 249 248 249 250 251 251 252 252 253 253 254 254 253 253 254 255 256 258 259
266 262 260 261 260 260 261 260 259 258 257 257 255 253 252 252 252 250 249 247 246 246 247 247 247 248 249 248 248 248 247 247 248 249 250 251 252 253 253 254 254 255 254 253 253 254 256 257 259
266 264 262 261 260 261 261 261 259 258 257 257 255 253 252 252 251 249 249 247 246 246 246 246 246 248 248 247 247 247 247 248 247 248 249 250 252 253 254 255 254 254 254 253 253 254 256 256 258
268 266 264 262 262 263 264 262 260 259 258 257 255 254 253 252 251 249 248 246 247 246 246 246 246 246 247 246 246 247 247 248 248 248 249 250 251 253 253 255 255 254 253 254 254 254 255 256 258
269 267 266 265 264 266 267 264 260 260 259 258 256 255 254 253 251 250 248 247 247 246 246 246 247 247 247 246 246 247 246 247 247 248 249 249 250 252 252 253 254 253 253 254 254 253 254 255 257
271 269 269 270 268 269 268 266 260 260 259 259 257 256 255 253 251 250 249 247 246 246 245 244 246 247 247 246 246 246 247 247 248 249 248 249 250 251 250 251 252 252 252 253 253 253 253 254 256
273 271 272 270 269 269 268 267 263 262 261 260 258 257 256 254 252 250 249 247 245 245 244 244 245 246 246 245 245 246 247 248 248 248 248 250 251 250 250 251 252 252 251 252 252 253 254 255 256
274 273 273 271 270 270 270 270 266 265 264 261 259 259 257 255 252 250 248 246 245 244 243 244 244 246 246 244 245 245 247 247 248 248 248 249 251 251 251 251 251 252 251 251 252 252 253 254 255
273 274 275 274 272 273 271 270 269 268 266 264 264 262 258 256 253 249 247 245 244 242 242 244 244 245 245 245 244 245 245 246 247 248 248 249 250 251 252 251 251 252 251 251 252 252 253 254 256
274 274 276 276 277 276 273 271 270 269 269 269 268 266 262 257 254 250 247 245 243 242 243 243 244 245 245 245 244 244 244 245 246 247 247 248 249 250 251 251 251 251 252 252 252 252 253 254 255
276 275 278 276 276 277 277 274 274 272 271 271 269 267 261 258 254 250 246 244 242 242 243 244 245 245 244 244 242 243 244 244 245 245 245 247 249 250 252 252 252 252 253 253 253 253 254 255 256
275 279 280 280 280 280 280 280 280 276 274 272 270 265 260 258 254 250 245 243 243 243 243 244 246 244 243 241 240 243 244 244 244 245 245 247 249 250 252 253 254 253 253 253 254 254 254 255 255
276 278 279 280 280 282 283 282 282 282 279 276 272 267 262 258 254 250 246 244 245 246 244 245 246 245 243 242 241 242 242 243 244 245 245 246 248 250 252 253 254 254 254 255 255 256 256 255 256
277 277 277 278 280 280 282 283 284 282 278 275 271 265 262 258 253 249 247 246 247 247 245 245 245 245 244 243 242 243 242 244 245 245 245 245 247 249 251 253 253 254 256 257 257 256 256 257 257
Height
5819 5820 5822 5824 5826 5827 5828 5831 5834 5836 5837 5838 5839 5840 5841 5842 5844 5847 5846 5845 5845 5846 5847 5847 5848 5848 5849 5850 5850 5851 5851 5851 5852 5852 5852 5852 5853 5853 5853 5854 5854 5854 5854 5855 5855 5856 5856 5856 5856
5813 5815 5817 5818 5819 5821 5824 5827 5829 5831 5832 5833 5834 5835 5837 5838 5839 5840 5841 5841 5842 5843 5843 5844 5845 5845 5846 5847 5847 5848 5848 5849 5849 5850 5850 5850 5850 5851 5851 5851 5852 5852 5852 5853 5853 5854 5854 5854 5855
5808 5809 5811 5812 5813 5816 5820 5822 5824 5825 5826 5827 5829 5830 5832 5834 5835 5836 5837 5837 5838 5839 5840 5840 5841 5842 5843 5843 5844 5844 5845 5845 5846 5846 5847 5847 5847 5848 5848 5849 5849 5850 5850 5850 5851 5852 5852 5852 5853
5802 5803 5804 5807 5808 5812 5814 5816 5818 5819 5820 5822 5823 5825 5827 5829 5830 5831 5832 5833 5834 5835 5836 5837 5837 5838 5839 5839 5840 5841 5841 5842 5842 5843 5843 5844 5844 5845 5845 5846 5846 5847 5847 5848 5848 5849 5849 5850 5850
5796 5797 5798 5799 5802 5806 5808 5809 5811 5813 5814 5816 5817 5819 5821 5823 5824 5826 5827 5828 5829 5830 5831 5832 5833 5834 5834 5835 5836 5836 5837 5838 5838 5839 5839 5840 5840 5841 5842 5842 5843 5843 5844 5845 5845 5846 5846 5847 5847
5790 5790 5792 5794 5797 5799 5801 5803 5805 5807 5808 5809 5811 5813 5815 5817 5818 5820 5821 5822 5824 5825 5826 5827 5828 5828 5829 5830 5831 5832 5832 5833 5834 5835 5835 5836 5836 5837 5837 5838 5839 5839 5840 5841 5842 5842 5843 5844 5844
5783 5784 5785 5788 5790 5792 5794 5796 5797 5799 5801 5803 5804 5806 5808 5810 5811 5813 5815 5816 5818 5819 5820 5821 5822 5823 5824 5825 5826 5827 5828 5829 5829 5830 5831 5832 5832 5833 5833 5833 5834 5835 5836 5837 5838 5839 5839 5840 5840
5775 5777 5778 5780 5783 5785 5787 5788 5790 5791 5793 5795 5796 5798 5800 5802 5804 5805 5807 5809 5811 5812 5814 5815 5816 5817 5818 5819 5820 5821 5822 5823 5824 5825 5826 5827 5828 5828 5829 5829 5830 5830 5831 5832 5833 5834 5835 5836 5836
5768 5770 5771 5774 5775 5778 5779 5780 5782 5783 5785 5786 5788 5790 5792 5794 5795 5797 5799 5801 5803 5805 5807 5808 5809 5811 5812 5813 5814 5815 5817 5818 5819 5820 5821 5822 5822 5823 5824 5824 5825 5826 5826 5827 5828 5829 5830 5831 5832
5759 5761 5765 5766 5767 5768 5770 5771 5774 5775 5777 5778 5780 5781 5783 5785 5787 5789 5791 5793 5795 5797 5799 5800 5802 5803 5805 5806 5807 5809 5810 5811 5813 5814 5815 5816 5817 5818 5819 5819 5820 5821 5821 5822 5823 5824 5825 5826 5827
5752 5754 5757 5757 5758 5759 5761 5763 5764 5766 5768 5770 5771 5773 5774 5776 5778 5780 5782 5784 5787 5789 5791 5792 5794 5796 5797 5799 5800 5802 5803 5805 5806 5808 5809 5810 5811 5812 5813 5814 5815 5815 5816 5817 5818 5819 5820 5821 5822
5744 5746 5747 5748 5749 5750 5752 5753 5755 5757 5760 5761 5762 5763 5764 5766 5768 5770 5773 5775 5778 5780 5782 5784 5786 5788 5789 5790 5792 5794 5796 5798 5799 5801 5802 5803 5805 5806 5807 5808 5809 5810 5811 5811 5812 5813 5814 5815 5816
5736 5737 5738 5738 5739 5741 5742 5744 5745 5748 5749 5750 5751 5753 5754 5756 5758 5760 5763 5765 5768 5770 5773 5775 5777 5779 5780 5782 5784 5786 5788 5790 5791 5793 5795 5796 5798 5799 5800 5801 5802 5803 5804 5805 5806 5807 5808 5809 5810
5727 5727 5728 5728 5729 5730 5732 5733 5735 5739 5738 5739 5741 5742 5744 5746 5748 5749 5752 5755 5757 5760 5763 5765 5767 5769 5771 5773 5776 5778 5779 5781 5783 5785 5787 5789 5790 5791 5792 5793 5795 5796 5798 5799 5800 5801 5801 5802 5803
5716 5716 5717 5718 5718 5720 5721 5723 5725 5727 5727 5728 5730 5731 5733 5735 5737 5738 5741 5744 5747 5749 5752 5755 5757 5759 5761 5764 5766 5769 5770 5772 5775 5777 5779 5780 5782 5783 5785 5786 5787 5789 5790 5791 5792 5793 5794 5795 5796
5705 5706 5707 5708 5708 5709 5711 5713 5715 5715 5716 5717 5718 5720 5722 5724 5725 5727 5729 5732 5735 5738 5741 5744 5746 5749 5751 5754 5757 5759 5761 5763 5766 5768 5770 5772 5773 5775 5777 5778 5780 5781 5782 5783 5785 5786 5787 5788 5789
5695 5695 5696 5698 5697 5698 5698 5702 5704 5703 5704 5706 5707 5708 5710 5712 5713 5715 5717 5720 5723 5726 5729 5732 5735 5737 5740 5743 5746 5749 5751 5754 5756 5759 5761 5763 5765 5766 5768 5770 5772 5773 5774 5775 5777 5778 5779 5780 5781
5685 5685 5685 5686 5686 5687 5687 5690 5692 5691 5692 5694 5695 5696 5698 5700 5702 5703 5706 5708 5711 5714 5717 5720 5723 5726 5728 5731 5734 5737 5740 5743 5746 5749 5751 5753 5756 5757 5759 5761 5763 5764 5765 5767 5768 5770 5771 5772 5773
5674 5674 5675 5676 5675 5676 5677 5679 5681 5680 5680 5681 5683 5684 5686 5688 5690 5691 5694 5697 5699 5702 5705 5708 5711 5714 5716 5719 5722 5725 5729 5732 5736 5739 5742 5744 5746 5748 5750 5752 5753 5755 5756 5758 5760 5761 5762 5764 5765
5665 5665 5665 5666 5665 5665 5666 5667 5669 5668 5669 5670 5671 5672 5675 5677 5678 5680 5682 5685 5688 5691 5694 5697 5700 5702 5705 5708 5711 5714 5717 5721 5724 5728 5730 5733 5735 5737 5740 5742 5744 5745 5747 5749 5750 5752 5753 5755 5756
5656 5656 5656 5656 5656 5655 5656 5657 5658 5657 5657 5658 5659 5660 5662 5664 5666 5668 5670 5673 5676 5680 5683 5686 5689 5691 5694 5697 5700 5703 5706 5709 5712 5716 5719 5722 5725 5727 5729 5732 5734 5735 5737 5739 5741 5743 5744 5746 5747
5648 5648 5648 5647 5647 5646 5646 5645 5648 5647 5647 5647 5648 5648 5650 5652 5654 5656 5658 5661 5664 5668 5671 5674 5677 5680 5683 5686 5689 5692 5695 5699 5702 5705 5708 5711 5713 5716 5718 5721 5723 5725 5727 5729 5731 5732 5735 5736 5738
5640 5640 5640 5639 5638 5637 5637 5635 5638 5637 5637 5636 5636 5637 5638 5639 5641 5644 5646 5649 5652 5655 5659 5663 5666 5669 5671 5675 5678 5681 5684 5688 5691 5693 5696 5699 5702 5704 5707 5710 5712 5714 5716 5718 5720 5722 5725 5727 5728
5632 5632 5631 5630 5629 5629 5629 5626 5627 5627 5627 5626 5626 5625 5626 5627 5629 5631 5634 5636 5640 5643 5647 5651 5654 5657 5660 5664 5667 5670 5673 5676 5679 5682 5685 5688 5691 5693 5695 5698 5700 5702 5705 5707 5710 5712 5714 5716 5718
5624 5624 5623 5621 5620 5620 5620 5617 5619 5618 5617 5616 5615 5614 5614 5615 5616 5619 5622 5625 5628 5632 5636 5640 5643 5646 5649 5652 5656 5659 5662 5665 5668 5671 5674 5677 5680 5682 5684 5687 5689 5691 5693 5696 5698 5700 5703 5705 5708
5616 5616 5616 5614 5612 5612 5611 5609 5611 5610 5608 5606 5605 5603 5602 5603 5604 5607 5610 5614 5618 5622 5625 5628 5632 5635 5638 5641 5644 5647 5651 5654 5657 5660 5663 5666 5669 5671 5673 5675 5677 5679 5682 5684 5687 5689 5692 5694 5697
5609 5609 5609 5607 5605 5603 5602 5602 5602 5601 5599 5597 5596 5594 5593 5593 5593 5596 5599 5603 5608 5612 5615 5618 5621 5624 5627 5630 5634 5637 5640 5643 5646 5650 5653 5656 5659 5661 5663 5664 5666 5669 5671 5673 5676 5678 5680 5683 5685
5604 5602 5601 5599 5597 5596 5595 5595 5594 5593 5591 5589 5587 5586 5585 5585 5585 5587 5590 5594 5598 5602 5605 5608 5611 5614 5617 5620 5623 5626 5629 5632 5636 5639 5642 5645 5648 5650 5653 5654 5656 5658 5661 5663 5665 5667 5669 5672 5674
5597 5596 5594 5593 5592 5590 5588 5590 5587 5585 5583 5582 5580 5579 5578 5578 5579 5580 5583 5585 5589 5592 5595 5598 5601 5604 5607 5610 5613 5616 5619 5622 5625 5628 5631 5634 5637 5640 5642 5644 5646 5648 5650 5652 5655 5657 5659 5661 5663
5590 5590 5588 5588 5586 5583 5582 5585 5580 5578 5576 5575 5574 5573 5572 5572 5573 5574 5576 5578 5580 5582 5585 5588 5591 5594 5597 5600 5603 5606 5608 5610 5613 5617 5620 5623 5626 5629 5631 5634 5636 5638 5640 5642 5644 5646 5648 5651 5653